Change the Weather History Date:

Monday, August 19, 2013

  Actual Average Record
Temperature  
Mean Temperature 54 °F -  
Max Temperature 72 °F - - ()
Min Temperature 35 °F - - ()
Degree Days  
Heating Degree Days 12    
Growing Degree Days 4 (Base 50)    
Moisture  
Dew Point 32 °F    
Average Humidity 46    
Maximum Humidity 100    
Minimum Humidity 9    
Precipitation  
Precipitation 0.00 in - - ()
Sea Level Pressure  
Sea Level Pressure 29.84 in    
Wind  
Wind Speed 10 mph ()    
Max Wind Speed 33 mph    
Max Gust Speed 47 mph    
Visibility 6.0 miles    
Events      
T = Trace of Precipitation, MM = Missing Value Source: Averaged Metar Reports

Daily Weather History Graph

Daily Weather History Graph

Search for Another Location

Airport or City:

Trip Planner

Search our weather history database for the weather conditions in past years. The results will help you decide how hot, cold, wet, or windy it might be!

Date:

Astronomy

Aug. 19, 2013 Rise Set
Actual Time 6:26 AM AEST 5:27 PM AEST
Civil Twilight 6:00 AM AEST 5:52 PM AEST
Nautical Twilight 5:31 AM AEST 6:21 PM AEST
Astronomical Twilight 5:03 AM AEST 6:49 PM AEST
Moon 3:30 PM AEST (8/19) 4:26 AM AEST (8/19)
Length of Visible Light 11h 51m
Length of Day
11h 00m
Waxing Gibbous, 94% of the Moon is Illuminated
Aug 19
Waxing Gibbous
Aug 21
Full
Aug 28
Last Quarter
Sep 5
New
Sep 13
First Quarter

Hourly Weather History & Observations

Time (AEST) Temp. Windchill Dew Point Humidity Pressure Visibility Wind Dir Wind Speed Gust Speed Precip Events Conditions
12:00 AM 46 °F - 36 °F 57% 29.95 in - NNW 6.9 mph - -  
12:00 AM 46.4 °F 42.9 °F 35.6 °F 66% 29.95 in 6.2 mi NNW 6.9 mph - N/A   Unknown
12:30 AM 44.6 °F 41.4 °F 37.4 °F 76% 29.92 in 6.2 mi NNW 5.8 mph - N/A   Unknown
1:00 AM 44 °F - 38 °F 74% 29.94 in - North 2.3 mph - -  
1:00 AM 42.8 °F - 39.2 °F 87% 29.92 in 6.2 mi North 2.3 mph - N/A   Unknown
1:30 AM 42.8 °F - 37.4 °F 81% 29.92 in 6.2 mi Calm Calm - N/A   Unknown
2:00 AM 41.0 °F - 37.4 °F 87% 29.89 in 6.2 mi Calm Calm - N/A   Unknown
2:28 AM 37.4 °F - 35.6 °F 93% 29.89 in 3.1 mi Calm Calm - N/A   Unknown
2:30 AM 37.4 °F - 35.6 °F 93% 29.89 in - Calm Calm - N/A   Unknown
2:47 AM 39.2 °F 35.0 °F 37.4 °F 93% 29.89 in 6.2 mi West 5.8 mph - N/A   Unknown
3:00 AM 40 °F - 38 °F 88% 29.91 in - WNW 6.9 mph - -  
3:00 AM 39.2 °F 34.2 °F 37.4 °F 93% 29.89 in 6.2 mi WNW 6.9 mph - N/A   Unknown
3:30 AM 42.8 °F 38.0 °F 37.4 °F 81% 29.89 in 6.2 mi NW 8.1 mph - N/A   Unknown
4:00 AM 41.0 °F - 37.4 °F 87% 29.89 in 6.2 mi North 1.2 mph - N/A   Unknown
4:30 AM 39.2 °F 37.0 °F 37.4 °F 93% 29.89 in 6.2 mi North 3.5 mph - N/A   Unknown
5:00 AM 39.2 °F - 35.6 °F 87% 29.89 in 6.2 mi Calm Calm - N/A   Unknown
5:30 AM 37.4 °F - 33.8 °F 87% 29.89 in 6.2 mi Calm Calm - N/A   Unknown
6:00 AM 37 °F - 35 °F 89% 29.89 in - Calm Calm - -  
6:00 AM 37.4 °F - 35.6 °F 93% 29.89 in - Calm Calm - N/A   Clear
6:30 AM 35.6 °F - 35.6 °F 100% 29.86 in - Calm Calm - N/A   Clear
7:00 AM 39 °F - 36 °F 83% 29.90 in - East 6.9 mph - -  
7:00 AM 39.2 °F 34.2 °F 35.6 °F 87% 29.89 in - East 6.9 mph - N/A   Clear
7:30 AM 44.6 °F - 39.2 °F 81% 29.89 in - NE 1.2 mph - N/A   Clear
8:00 AM 48.2 °F - 41.0 °F 76% 29.89 in - South 3.5 mph - N/A   Clear
8:30 AM 55.4 °F - 37.4 °F 51% 29.89 in - NW 9.2 mph - N/A   Clear
9:00 AM 59 °F - 35 °F 29% 29.90 in - NNW 9.2 mph - -  
9:00 AM 59.0 °F - 35.6 °F 42% 29.89 in - NNW 9.2 mph - N/A   Clear
9:30 AM 62.6 °F - 33.8 °F 34% 29.86 in - NNW 6.9 mph - N/A   Clear
10:00 AM 65 °F - 31 °F 17% 29.88 in - NNW 10.4 mph - -  
10:00 AM 64.4 °F - 30.2 °F 28% 29.86 in - NNW 10.4 mph - N/A   Clear
10:30 AM 66.2 °F - 32.0 °F 28% 29.83 in - NNW 13.8 mph - N/A   Clear
11:00 AM 69.8 °F - 30.2 °F 23% 29.83 in - NW 13.8 mph - N/A   Clear
11:23 AM 69.8 °F - 26.6 °F 20% 29.80 in - NW 23.0 mph 34.5 mph N/A   Clear
11:30 AM 71.6 °F - 24.8 °F 17% 29.80 in - NW 25.3 mph - N/A   Clear
11:39 AM 71.6 °F - 26.6 °F 19% 29.80 in - WNW 25.3 mph 36.8 mph N/A   Clear
12:00 PM 72 °F - 26 °F 9% 29.80 in - WNW 28.8 mph - -  
12:00 PM 71.6 °F - 26.6 °F 19% 29.80 in - WNW 28.8 mph 43.7 mph N/A   Clear
12:30 PM 71.6 °F - 26.6 °F 19% 29.77 in - WNW 32.2 mph 44.9 mph N/A   Clear
1:00 PM 72 °F - 26 °F 9% 29.77 in - WNW 33.4 mph - -  
1:00 PM 71.6 °F - 26.6 °F 19% 29.74 in - WNW 33.4 mph 44.9 mph N/A   Clear
1:32 PM 71.6 °F - 30.2 °F 22% 29.74 in - NW 27.6 mph 39.1 mph N/A   Clear
2:00 PM 71.6 °F - 32.0 °F 23% 29.74 in - NW 26.5 mph 41.4 mph N/A   Clear
2:08 PM 71.6 °F - 32.0 °F 23% 29.74 in - West 28.8 mph - N/A   Clear
2:11 PM 71.6 °F - 30.2 °F 22% 29.74 in - NW 21.9 mph 34.5 mph N/A   Clear
2:29 PM 71.6 °F - 28.4 °F 20% 29.74 in - WNW 32.2 mph 47.2 mph N/A   Clear
3:00 PM 71 °F - 30 °F 12% 29.74 in - WNW 31.1 mph - -  
3:00 PM 71.6 °F - 30.2 °F 22% 29.71 in - WNW 31.1 mph - N/A   Clear
3:04 PM 69.8 °F - 30.2 °F 23% 29.71 in - WNW 28.8 mph 40.3 mph N/A   Clear
3:30 PM 69.8 °F - 32.0 °F 25% 29.74 in - WNW 26.5 mph 38.0 mph N/A   Clear
4:00 PM 70 °F - 31 °F 13% 29.74 in - WNW 26.5 mph - -  
4:00 PM 69.8 °F - 30.2 °F 23% 29.74 in - WNW 26.5 mph 39.1 mph N/A   Clear
4:30 PM 68.0 °F - 32.0 °F 26% 29.74 in - WNW 23.0 mph - N/A   Clear
5:00 PM 66.2 °F - 32.0 °F 28% 29.77 in - West 16.1 mph - N/A   Clear
5:30 PM 66.2 °F - 30.2 °F 26% 29.77 in - West 19.6 mph - N/A   Clear
5:54 PM 64.4 °F - 28.4 °F 26% 29.80 in - West 18.4 mph 29.9 mph N/A   Clear
6:00 PM 65 °F - 28 °F 14% 29.81 in - West 19.6 mph - -   Overcast
6:00 PM 64.4 °F - 28.4 °F 26% 29.80 in - West 19.6 mph 33.4 mph N/A   Clear
6:30 PM 60.8 °F - 30.2 °F 31% 29.80 in - WSW 13.8 mph - N/A   Clear
7:00 PM 60 °F - 32 °F 23% 29.84 in - WSW 12.7 mph - -  
7:00 PM 59.0 °F - 32.0 °F 36% 29.83 in - WSW 12.7 mph - N/A   Clear
7:30 PM 60.8 °F - 32.0 °F 34% 29.83 in - West 17.3 mph - N/A   Clear
8:00 PM 59.0 °F - 30.2 °F 34% 29.86 in - WSW 15.0 mph - N/A   Clear
8:30 PM 57.2 °F - 30.2 °F 36% 29.86 in - West 16.1 mph - N/A   Clear
9:00 PM 57 °F - 28 °F 21% 29.89 in - West 17.3 mph - -   Overcast
9:00 PM 57.2 °F - 28.4 °F 33% 29.89 in 6.2 mi West 17.3 mph - N/A   Scattered Clouds
9:30 PM 55.4 °F - 28.4 °F 36% 29.89 in 6.2 mi West 12.7 mph - N/A   Unknown
10:00 PM 55 °F - 28 °F 23% 29.90 in - West 13.8 mph - -  
10:00 PM 55.4 °F - 28.4 °F 36% 29.89 in 6.2 mi West 13.8 mph - N/A   Unknown
10:30 PM 53.6 °F - 28.4 °F 38% 29.89 in 6.2 mi West 13.8 mph - N/A   Unknown
11:00 PM 53.6 °F - 28.4 °F 38% 29.89 in 6.2 mi West 12.7 mph - N/A   Unknown
11:30 PM 51.8 °F - 28.4 °F 41% 29.89 in 6.2 mi West 12.7 mph - N/A   Unknown